| time (UTC) | temp F | wind direction | speed MPH | gust MPH | rain 1hr in | rain 24hr in | rain mn in | humidity % | barometer mb |
| 20260503203605 | 62 | 10 | 6.0 | 11.0 | 0.00 | 0.00 | 0.05 | 20 | 1020.9 |
| 20260503202603 | 62 | 337 | 7.0 | 10.0 | 0.00 | 0.00 | 0.05 | 19 | 1020.9 |
| 20260503201604 | 61 | 8 | 5.0 | 17.0 | 0.00 | 0.00 | 0.05 | 22 | 1021.1 |
| 20260503200605 | 60 | 320 | 9.0 | 15.0 | 0.00 | 0.00 | 0.05 | 21 | 1021.3 |
| 20260503194503 | 62 | 1 | 6.0 | 15.0 | 0.00 | 0.00 | 0.05 | 20 | 1021.3 |
| 20260503193503 | 62 | 10 | 9.0 | 11.0 | 0.00 | 0.00 | 0.05 | 19 | 1021.5 |
| 20260503192504 | 62 | 17 | 2.0 | 8.0 | 0.00 | 0.00 | 0.05 | 19 | 1021.5 |
| 20260503191502 | 61 | 1 | 8.0 | 11.0 | 0.00 | 0.00 | 0.05 | 20 | 1021.7 |
| 20260503190505 | 61 | 0 | 4.0 | 11.0 | 0.00 | 0.00 | 0.05 | 20 | 1021.9 |
| 20260503185504 | 63 | 340 | 4.0 | 9.0 | 0.00 | 0.00 | 0.05 | 17 | 1021.7 |
| 20260503184502 | 61 | 37 | 0.0 | 6.0 | 0.00 | 0.00 | 0.05 | 18 | 1022.0 |
| 20260503183503 | 60 | 0 | 8.0 | 11.0 | 0.00 | 0.00 | 0.05 | 18 | 1022.4 |
| 20260503182504 | 60 | 21 | 3.0 | 10.0 | 0.00 | 0.00 | 0.05 | 19 | 1022.5 |
| 20260503181503 | 61 | 83 | 1.0 | 6.0 | 0.00 | 0.00 | 0.05 | 18 | 1022.3 |
| 20260503180502 | 60 | 55 | 4.0 | 15.0 | 0.00 | 0.00 | 0.05 | 19 | 1022.4 |
| 20260503175503 | 60 | 28 | 5.0 | 5.0 | 0.00 | 0.00 | 0.05 | 17 | 1022.7 |
| 20260503174504 | 61 | 40 | 2.0 | 6.0 | 0.00 | 0.00 | 0.05 | 18 | 1022.9 |
| 20260503173502 | 61 | 332 | 2.0 | 6.0 | 0.00 | 0.00 | 0.05 | 18 | 1022.9 |
| 20260503172503 | 60 | 16 | 2.0 | 8.0 | 0.00 | 0.00 | 0.05 | 18 | 1022.9 |
| 20260503171504 | 60 | 23 | 7.0 | 7.0 | 0.00 | 0.00 | 0.05 | 18 | 1023.1 |
| 20260503170502 | 61 | 13 | 1.0 | 11.0 | 0.00 | 0.00 | 0.05 | 17 | 1023.2 |
| 20260503150402 | 56 | 18 | 0.0 | 3.0 | 0.00 | 0.00 | 0.04 | 27 | 1023.9 |
| 20260503131304 | 43 | 220 | 2.0 | 9.0 | 0.00 | 0.00 | 0.01 | 44 | 1024.5 |
| 20260503130302 | 43 | 215 | 3.0 | 8.0 | 0.00 | 0.00 | 0.01 | 44 | 1024.7 |
| 20260503120203 | 41 | 360 | 1.0 | 3.0 | 0.00 | 0.00 | 0.00 | 47 | 1024.4 |
| 20260503110103 | 43 | 107 | 3.0 | 10.0 | 0.00 | 0.00 | 0.00 | 46 | 1024.3 |
| 20260503081004 | 46 | 182 | 0.0 | 2.0 | 0.00 | 0.00 | 0.00 | 44 | 1025.2 |
| 20260503072903 | 46 | 191 | 0.0 | 7.0 | 0.00 | 0.00 | 0.00 | 43 | 1025.3 |
| 20260503071904 | 46 | 186 | 1.0 | 10.0 | 0.00 | 0.00 | 0.00 | 44 | 1025.3 |
| 20260503070903 | 46 | 360 | 1.0 | 1.0 | 0.00 | 0.00 | 0.00 | 45 | 1025.2 |
| 20260503054802 | 47 | 360 | 1.0 | 3.0 | 0.00 | 0.00 | 0.08 | 44 | 1024.9 |
| 20260503053803 | 48 | 360 | 1.0 | 7.0 | 0.00 | 0.00 | 0.08 | 44 | 1024.9 |
| 20260503052803 | 48 | 253 | 0.0 | 2.0 | 0.00 | 0.00 | 0.08 | 44 | 1024.9 |
| 20260503051802 | 48 | 131 | 2.0 | 4.0 | 0.00 | 0.00 | 0.08 | 44 | 1024.9 |
| 20260503050802 | 48 | 208 | 1.0 | 10.0 | 0.00 | 0.00 | 0.08 | 43 | 1024.9 |
| 20260503045803 | 48 | 184 | 2.0 | 10.0 | 0.00 | 0.00 | 0.08 | 43 | 1024.9 |
| 20260503044804 | 48 | 192 | 1.0 | 2.0 | 0.00 | 0.00 | 0.08 | 43 | 1024.9 |
| 20260503043804 | 48 | 192 | 1.0 | 7.0 | 0.00 | 0.00 | 0.08 | 43 | 1024.8 |
| 20260503042803 | 48 | 189 | 0.0 | 2.0 | 0.00 | 0.00 | 0.08 | 42 | 1024.8 |
| 20260503035603 | 50 | 116 | 1.0 | 8.0 | 0.00 | 0.00 | 0.08 | 40 | 1024.5 |
| 20260503034603 | 50 | 169 | 1.0 | 2.0 | 0.00 | 0.00 | 0.08 | 39 | 1024.4 |
| 20260503033604 | 51 | 76 | 0.0 | 0.0 | 0.00 | 0.00 | 0.08 | 39 | 1024.4 |
| 20260503032603 | 51 | 148 | 0.0 | 5.0 | 0.00 | 0.00 | 0.08 | 38 | 1024.3 |
| 20260503031603 | 52 | 198 | 0.0 | 0.0 | 0.00 | 0.00 | 0.08 | 38 | 1024.1 |
| 20260503030604 | 53 | 360 | 1.0 | 2.0 | 0.00 | 0.00 | 0.08 | 37 | 1024.0 |
| 20260503023404 | 55 | 195 | 0.0 | 8.0 | 0.00 | 0.00 | 0.08 | 33 | 1023.6 |
| 20260503022404 | 56 | 150 | 0.0 | 6.0 | 0.00 | 0.00 | 0.08 | 31 | 1023.5 |
| 20260503021403 | 57 | 332 | 2.0 | 9.0 | 0.00 | 0.00 | 0.08 | 30 | 1023.2 |
| 20260503020403 | 57 | 263 | 1.0 | 10.0 | 0.00 | 0.00 | 0.08 | 29 | 1023.1 |
| 20260503015404 | 58 | 281 | 1.0 | 6.0 | 0.00 | 0.00 | 0.08 | 28 | 1022.9 |
| 20260503014403 | 58 | 326 | 0.0 | 6.0 | 0.00 | 0.00 | 0.08 | 27 | 1022.8 |
| 20260503013403 | 58 | 359 | 2.0 | 3.0 | 0.00 | 0.00 | 0.08 | 26 | 1022.8 |
| 20260503012402 | 58 | 339 | 1.0 | 7.0 | 0.00 | 0.00 | 0.08 | 27 | 1022.8 |
| 20260503011403 | 59 | 337 | 2.0 | 5.0 | 0.00 | 0.00 | 0.08 | 27 | 1022.8 |
| 20260503010403 | 59 | 333 | 4.0 | 5.0 | 0.00 | 0.00 | 0.08 | 24 | 1022.7 |
| 20260503005404 | 60 | 44 | 2.0 | 9.0 | 0.00 | 0.00 | 0.08 | 24 | 1022.7 |
| 20260503004402 | 60 | 10 | 2.0 | 8.0 | 0.00 | 0.00 | 0.08 | 23 | 1022.7 |
| 20260503003403 | 61 | 24 | 2.0 | 5.0 | 0.00 | 0.00 | 0.08 | 22 | 1022.7 |
| 20260503001303 | 62 | 340 | 2.0 | 5.0 | 0.00 | 0.00 | 0.08 | 20 | 1022.7 |
| 20260502235204 | 63 | 347 | 3.0 | 6.0 | 0.00 | 0.00 | 0.08 | 19 | 1022.7 |
| 20260502234202 | 64 | 3 | 2.0 | 3.0 | 0.00 | 0.00 | 0.08 | 18 | 1022.7 |
| 20260502233203 | 64 | 326 | 2.0 | 5.0 | 0.00 | 0.00 | 0.08 | 18 | 1022.7 |
| 20260502232203 | 63 | 329 | 4.0 | 8.0 | 0.00 | 0.00 | 0.08 | 18 | 1022.7 |
| 20260502231204 | 63 | 59 | 4.0 | 6.0 | 0.00 | 0.00 | 0.08 | 18 | 1022.9 |
| 20260502225104 | 61 | 3 | 2.0 | 12.0 | 0.00 | 0.00 | 0.08 | 19 | 1022.9 |
| 20260502224102 | 62 | 360 | 5.0 | 12.0 | 0.00 | 0.00 | 0.08 | 18 | 1022.9 |
| 20260502223103 | 63 | 344 | 4.0 | 6.0 | 0.00 | 0.00 | 0.08 | 18 | 1022.9 |
| 20260502222104 | 64 | 360 | 1.0 | 7.0 | 0.00 | 0.00 | 0.08 | 16 | 1022.9 |
| 20260502221102 | 64 | 49 | 4.0 | 12.0 | 0.00 | 0.00 | 0.08 | 17 | 1023.1 |
| 20260502215104 | 65 | 24 | 0.0 | 5.0 | 0.00 | 0.00 | 0.08 | 15 | 1023.2 |
| 20260502214102 | 65 | 8 | 3.0 | 9.0 | 0.00 | 0.00 | 0.08 | 15 | 1023.5 |
| 20260502212003 | 64 | 25 | 4.0 | 7.0 | 0.00 | 0.00 | 0.08 | 15 | 1023.6 |
| 20260502211003 | 63 | 25 | 5.0 | 7.0 | 0.00 | 0.00 | 0.08 | 16 | 1023.7 |
| 20260502210004 | 62 | 0 | 5.0 | 6.0 | 0.00 | 0.00 | 0.08 | 16 | 1023.9 |
| 20260502205004 | 64 | 356 | 3.0 | 9.0 | 0.00 | 0.00 | 0.08 | 16 | 1024.0 |
| 20260502204003 | 64 | 14 | 7.0 | 6.0 | 0.00 | 0.00 | 0.08 | 15 | 1023.9 |